Rabat-Sale, Morocco

5:21 AM WET on January 22, 2018 (GMT +0000)
Rabat-Sale

Weather History for GMME - May, 2014

Change the Weather History Date:

Monday, May 12, 2014

  Actual Average Record
Temperature  
Mean Temperature 68 °F -  
Max Temperature 83 °F 73 °F 102 °F (2015)
Min Temperature 53 °F 56 °F 48 °F (2001)
Cooling Degree Days 3    
Growing Degree Days 18 (Base 50)    
Moisture  
Dew Point 58 °F    
Average Humidity 74    
Maximum Humidity 94    
Minimum Humidity 29    
Precipitation  
Precipitation 0.00 in 0.02 in - ()
Sea Level Pressure  
Sea Level Pressure 29.91 in    
Wind  
Wind Speed 3 mph ()    
Max Wind Speed 10 mph    
Max Gust Speed -    
Visibility 3.5 miles    
Events      
Averages and records for this station are not official NWS values.
T = Trace of Precipitation, MM = Missing Value Source: Averaged Metar Reports

Daily Weather History Graph

Daily Weather History Graph

Search for Another Location

Airport or City:

Trip Planner

Search our weather history database for the weather conditions in past years. The results will help you decide how hot, cold, wet, or windy it might be!

Date:

Astronomy

May. 12, 2014 Rise Set
Actual Time 6:28 AM WEST 8:19 PM WEST
Civil Twilight 6:00 AM WEST 8:46 PM WEST
Nautical Twilight 5:27 AM WEST 9:20 PM WEST
Astronomical Twilight 4:52 AM WEST 9:55 PM WEST
Moon 6:08 PM WEST (5/12) 4:51 AM WEST (5/12)
Length of Visible Light 14h 46m
Length of Day
13h 51m
Waxing Gibbous, 94% of the Moon is Illuminated
May 12
Waxing Gibbous
May 14
Full
May 21
Last Quarter
May 28
New
Jun 5
First Quarter

Hourly Weather History & Observations

Time (WEST) Temp. Heat Index Dew Point Humidity Pressure Visibility Wind Dir Wind Speed Gust Speed Precip Events Conditions
12:00 AM 57.2 °F - 53.6 °F 88% 29.98 in 3.1 mi Calm Calm - N/A   Unknown
12:30 AM 57.2 °F - 53.6 °F 88% 29.98 in 3.1 mi South 2.3 mph - N/A   Unknown
1:00 AM 57 °F - 54 °F 88% 29.98 in 3 mi Calm Calm - -  
1:00 AM 57.2 °F - 53.6 °F 88% 29.95 in 3.1 mi Calm Calm - N/A   Unknown
1:30 AM 57.2 °F - 53.6 °F 88% 29.95 in 3.1 mi Calm Calm - N/A   Unknown
2:00 AM 57.2 °F - 53.6 °F 88% 29.95 in 3.1 mi South 1.2 mph - N/A   Unknown
2:30 AM 55.4 °F - 51.8 °F 88% 29.92 in 3.1 mi Calm Calm - N/A   Unknown
3:00 AM 55.4 °F - 51.8 °F 88% 29.92 in 3.1 mi South 2.3 mph - N/A   Unknown
3:30 AM 55.4 °F - 51.8 °F 88% 29.92 in 3.1 mi Calm Calm - N/A   Unknown
4:00 AM 55 °F - 53 °F 91% 29.93 in 3 mi SSE 1.2 mph - -  
4:00 AM 55.4 °F - 53.6 °F 94% 29.92 in 3.1 mi SSE 1.2 mph - N/A   Unknown
4:30 AM 55.4 °F - 53.6 °F 94% 29.89 in 3.1 mi Calm Calm - N/A   Unknown
5:00 AM 53.6 °F - 51.8 °F 94% 29.89 in 3.1 mi Calm Calm - N/A   Unknown
5:30 AM 53.6 °F - 51.8 °F 94% 29.89 in 3.1 mi SSE 1.2 mph - N/A   Unknown
6:00 AM 53.6 °F - 51.8 °F 94% 29.89 in 3.1 mi Calm Calm - N/A   Unknown
6:11 AM 53.6 °F - 51.8 °F 94% 29.89 in 1.2 mi Calm Calm - N/A   Scattered Clouds
6:30 AM 53.6 °F - 51.8 °F 94% 29.89 in 0.7 mi Calm Calm - N/A   Scattered Clouds
7:00 AM 55 °F - 53 °F 92% 29.91 in 1 mi SE 2.3 mph - -   Mist
7:00 AM 55.4 °F - 53.6 °F 94% 29.89 in 0.7 mi SE 2.3 mph - N/A   Scattered Clouds
7:30 AM 59.0 °F - 57.2 °F 94% 29.89 in 0.7 mi Variable 2.3 mph - N/A   Scattered Clouds
8:00 AM 64.4 °F - 62.6 °F 94% 29.89 in 1.9 mi Calm Calm - N/A   Scattered Clouds
8:18 AM 66.2 °F - 64.4 °F 94% 29.92 in 3.1 mi Calm Calm - N/A   Partly Cloudy
8:30 AM 66.2 °F - 64.4 °F 94% 29.92 in 5.0 mi Calm Calm - N/A   Unknown
9:00 AM 69.8 °F - 62.6 °F 78% 29.92 in 5.0 mi Variable 2.3 mph - N/A   Unknown
9:30 AM 73.4 °F - 60.8 °F 65% 29.92 in 5.0 mi Variable 2.3 mph - N/A   Unknown
10:00 AM 76 °F - 60 °F 49% 29.91 in 5 mi NNE 2.3 mph - -  
10:00 AM 77.0 °F - 60.8 °F 57% 29.92 in 5.0 mi Variable 2.3 mph - N/A   Unknown
10:30 AM 78.8 °F - 60.8 °F 54% 29.89 in - NNE 3.5 mph - N/A   Clear
11:00 AM 77.0 °F - 64.4 °F 65% 29.92 in - NW 6.9 mph - N/A   Clear
11:30 AM 78.8 °F - 64.4 °F 61% 29.89 in - NW 6.9 mph - N/A   Clear
12:00 PM 78.8 °F - 64.4 °F 61% 29.92 in - NW 9.2 mph - N/A   Clear
12:30 PM 78.8 °F - 64.4 °F 61% 29.92 in - NNW 8.1 mph - N/A   Clear
1:00 PM 78 °F - 63 °F 51% 29.90 in 6 mi NNW 8.1 mph - -  
1:00 PM 78.8 °F - 62.6 °F 57% 29.89 in - NNW 8.1 mph - N/A   Clear
1:30 PM 78.8 °F - 62.6 °F 57% 29.89 in - NNW 9.2 mph - N/A   Clear
2:00 PM 78.8 °F - 59.0 °F 51% 29.89 in - NNW 8.1 mph - N/A   Clear
2:30 PM 80.6 °F 80.8 °F 57.2 °F 45% 29.89 in - NNW 8.1 mph - N/A   Clear
3:00 PM 82.4 °F 81.7 °F 55.4 °F 39% 29.89 in - North 8.1 mph - N/A   Clear
3:30 PM 82.4 °F 82.0 °F 57.2 °F 42% 29.89 in - North 9.2 mph - N/A   Unknown
4:00 PM 82 °F - 55 °F 29% 29.87 in 6 mi North 10.4 mph - -  
4:00 PM 82.4 °F 81.7 °F 55.4 °F 39% 29.86 in - North 10.4 mph - N/A   Clear
4:30 PM 82.4 °F 82.5 °F 59.0 °F 45% 29.89 in - North 9.2 mph - N/A   Clear
5:00 PM 78.8 °F - 60.8 °F 54% 29.89 in - North 9.2 mph - N/A   Clear
5:30 PM 78.8 °F - 60.8 °F 54% 29.89 in - North 9.2 mph - N/A   Clear
6:00 PM 77.0 °F - 60.8 °F 57% 29.89 in - North 9.2 mph - N/A   Clear
6:30 PM 75.2 °F - 62.6 °F 65% 29.89 in - NNW 9.2 mph - N/A   Clear
7:00 PM 74 °F - 62 °F 59% 29.88 in 6 mi North 8.1 mph - -  
7:00 PM 75.2 °F - 62.6 °F 65% 29.89 in - North 9.2 mph - N/A   Clear
7:30 PM 73.4 °F - 62.6 °F 69% 29.89 in - North 5.8 mph - N/A   Clear
8:00 PM 71.6 °F - 62.6 °F 73% 29.89 in - NNW 3.5 mph - N/A   Clear
8:30 PM 69.8 °F - 62.6 °F 78% 29.92 in - North 2.3 mph - N/A   Clear
9:00 PM 66.2 °F - 59.0 °F 78% 29.92 in - NNW 1.2 mph - N/A   Clear
9:30 PM 66.2 °F - 60.8 °F 83% 29.92 in 5.0 mi Variable 1.2 mph - N/A   Unknown
10:00 PM 64 °F - 60 °F 84% 29.94 in 5 mi Calm Calm - -  
10:00 PM 64.4 °F - 60.8 °F 88% 29.92 in 5.0 mi Calm Calm - N/A   Unknown
10:30 PM 62.6 °F - 59.0 °F 88% 29.95 in 3.7 mi SSE 2.3 mph - N/A   Unknown
11:00 PM 62.6 °F - 59.0 °F 88% 29.95 in 3.7 mi ESE 1.2 mph - N/A   Unknown
11:30 PM 62.6 °F - 59.0 °F 88% 29.95 in 3.7 mi Calm Calm - N/A   Unknown